Location: Anglesey
(53.1800°N, 4.2200°W)
Time: 08:53:00
(UTC+01:00)

Tiangong 2 - Pass Details

Date: 11 October 2017
Orbit: 388 x 391 km, 42.8° (Epoch: 23 October)

Event Time Altitude Azimuth Distance (km) Brightness Sun altitude
Exits shadow 06:34:03 - 215° (SW) 1,874 4.2 -10.1°
Reaches altitude 10° 06:35:58 10° 191° (S) 1,421 3.8 -9.8°
Maximum altitude 06:37:09 12° 169° (S) 1,330 3.9 -9.6°
Drops below altitude 10° 06:38:20 10° 147° (SSE) 1,422 4.4 -9.5°
Sets 06:41:31 0° 113° (ESE) 2,280 6.4 -9.0°
